Location: Northcutt
(34.7304°N, 84.4305°W)
Time: 08:14:30
(UTC+00:00)

S-56A Canister/Altair - Pass Details

Date: 06 October 2022
Orbit: 638 x 2494 km, 38.9° (Epoch: 08 December)

Event Time Altitude Azimuth Distance (km) Brightness Sun altitude
Rises 07:34:49 0° 267° (W) 5,824 - -48.0°
Reaches altitude 10° 07:39:02 10° 270° (W) 4,605 - -47.3°
Maximum altitude 07:51:09 70° 353° (N) 1,653 - -45.3°
Exits shadow 07:54:18 44° 62° (ENE) 1,863 9.6 -44.8°
Drops below altitude 10° 07:59:03 10° 78° (ENE) 3,100 11.2 -43.9°
Sets 08:01:22 0° 80° (E) 3,859 11.8 -43.5°
